EN

Hourly Weather Piro

Today, 3 December, Thursday

Time Temperature Precipitation Wind Pressure Humidity
00:00 +20°C° 0 mm 1 mps 752 mmHg 39%
01:00 +19°C° 0 mm 1 mps 752 mmHg 40%
02:00 +18°C° 0 mm 2 mps 752 mmHg 40%
03:00 +17°C° 0 mm 2 mps 752 mmHg 41%
04:00 +17°C° 0 mm 2 mps 752 mmHg 42%
05:00 +16°C° 0 mm 2 mps 752 mmHg 43%
06:00 +16°C° 0 mm 1 mps 753 mmHg 46%
07:00 +17°C° 0 mm 2 mps 753 mmHg 44%
08:00 +19°C° 0 mm 2 mps 754 mmHg 41%
09:00 +20°C° 0 mm 2 mps 754 mmHg 39%
10:00 +23°C° 0 mm 2 mps 754 mmHg 35%
11:00 +25°C° 0 mm 2 mps 754 mmHg 32%
12:00 +27°C° 0 mm 1 mps 754 mmHg 29%
13:00 +28°C° 0 mm 1 mps 753 mmHg 28%
14:00 +28°C° 0 mm 1 mps 752 mmHg 27%
15:00 +29°C° 0 mm 1 mps 752 mmHg 26%
16:00 +27°C° 0 mm 1 mps 752 mmHg 29%
17:00 +25°C° 0 mm 1 mps 752 mmHg 33%
18:00 +21°C° 0 mm 0 mps 752 mmHg 36%
19:00 +21°C° 0 mm 0 mps 752 mmHg 37%
20:00 +22°C° 0 mm 1 mps 752 mmHg 38%
21:00 +22°C° 0 mm 1 mps 753 mmHg 39%
22:00 +21°C° 0 mm 1 mps 753 mmHg 40%
23:00 +21°C° 0 mm 1 mps 753 mmHg 42%

Tomorrow, 4 December, Friday

Time Temperature Precipitation Wind Pressure Humidity
00:00 +19°C° 0 mm 2 mps 753 mmHg 43%
01:00 +18°C° 0 mm 2 mps 752 mmHg 44%
02:00 +18°C° 0 mm 2 mps 752 mmHg 45%
03:00 +17°C° 0 mm 2 mps 752 mmHg 46%
04:00 +17°C° 0 mm 2 mps 752 mmHg 47%
05:00 +17°C° 0 mm 2 mps 752 mmHg 47%
06:00 +16°C° 0 mm 1 mps 752 mmHg 48%
07:00 +19°C° 0 mm 1 mps 752 mmHg 44%
08:00 +20°C° 0 mm 1 mps 753 mmHg 41%
09:00 +22°C° 0 mm 1 mps 753 mmHg 38%
10:00 +24°C° 0 mm 1 mps 753 mmHg 35%
11:00 +26°C° 0 mm 1 mps 753 mmHg 32%
12:00 +28°C° 0 mm 1 mps 753 mmHg 28%
13:00 +29°C° 0 mm 1 mps 752 mmHg 27%
14:00 +29°C° 0 mm 1 mps 751 mmHg 26%
15:00 +29°C° 0 mm 1 mps 751 mmHg 25%
16:00 +28°C° 0 mm 1 mps 751 mmHg 27%
17:00 +26°C° 0 mm 1 mps 751 mmHg 30%
18:00 +24°C° 0 mm 1 mps 750 mmHg 32%
19:00 +23°C° 0 mm 1 mps 751 mmHg 33%
20:00 +23°C° 0 mm 1 mps 751 mmHg 33%
21:00 +22°C° 0 mm 1 mps 752 mmHg 34%
22:00 +21°C° 0 mm 1 mps 752 mmHg 34%
23:00 +21°C° 0 mm 1 mps 752 mmHg 35%

Day after tomorrow, 5 December, Saturday

Time Temperature Precipitation Wind Pressure Humidity
00:00 +20°C° 0 mm 1 mps 752 mmHg 35%
01:00 +20°C° 0 mm 1 mps 752 mmHg 36%
02:00 +19°C° 0 mm 1 mps 752 mmHg 37%
03:00 +19°C° 0 mm 1 mps 751 mmHg 37%
04:00 +19°C° 0 mm 1 mps 751 mmHg 39%
05:00 +18°C° 0 mm 1 mps 752 mmHg 40%
06:00 +18°C° 0 mm 1 mps 752 mmHg 41%
07:00 +19°C° 0 mm 1 mps 752 mmHg 39%
08:00 +21°C° 0 mm 1 mps 753 mmHg 38%
09:00 +22°C° 0 mm 1 mps 754 mmHg 36%
10:00 +24°C° 0 mm 1 mps 754 mmHg 32%
11:00 +27°C° 0 mm 1 mps 753 mmHg 28%
12:00 +29°C° 0 mm 1 mps 753 mmHg 24%
13:00 +29°C° 0 mm 1 mps 753 mmHg 23%
14:00 +29°C° 0 mm 1 mps 752 mmHg 22%
15:00 +30°C° 0 mm 2 mps 751 mmHg 20%
16:00 +28°C° 0 mm 1 mps 751 mmHg 23%
17:00 +26°C° 0 mm 1 mps 751 mmHg 26%
18:00 +24°C° 0 mm 1 mps 751 mmHg 29%
19:00 +23°C° 0 mm 1 mps 752 mmHg 30%
20:00 +21°C° 0 mm 0 mps 752 mmHg 31%
21:00 +20°C° 0 mm 0 mps 753 mmHg 32%
22:00 +19°C° 0 mm 0 mps 753 mmHg 33%
23:00 +19°C° 0 mm 0 mps 753 mmHg 34%

6 December, Sunday

Time Temperature Precipitation Wind Pressure Humidity
00:00 +18°C° 0 mm 0 mps 753 mmHg 35%
01:00 +18°C° 0 mm 0 mps 753 mmHg 36%
02:00 +20°C° 0 mm 1 mps 753 mmHg 37%
03:00 +19°C° 0 mm 1 mps 752 mmHg 38%
04:00 +19°C° 0 mm 1 mps 753 mmHg 40%
05:00 +18°C° 0 mm 1 mps 753 mmHg 41%
06:00 +18°C° 0 mm 1 mps 753 mmHg 42%
07:00 +19°C° 0 mm 1 mps 754 mmHg 40%
08:00 +21°C° 0 mm 1 mps 755 mmHg 38%
09:00 +22°C° 0 mm 1 mps 755 mmHg 37%
10:00 +25°C° 0 mm 1 mps 755 mmHg 33%
11:00 +27°C° 0 mm 1 mps 755 mmHg 29%
12:00 +29°C° 0 mm 1 mps 755 mmHg 25%
13:00 +29°C° 0 mm 2 mps 754 mmHg 23%
14:00 +30°C° 0 mm 2 mps 754 mmHg 22%
15:00 +30°C° 0 mm 2 mps 753 mmHg 21%
16:00 +28°C° 0 mm 2 mps 753 mmHg 24%
17:00 +27°C° 0 mm 2 mps 753 mmHg 27%
18:00 +25°C° 0 mm 1 mps 753 mmHg 30%
19:00 +24°C° 0 mm 1 mps 753 mmHg 32%
20:00 +23°C° 0 mm 1 mps 754 mmHg 33%
21:00 +22°C° 0 mm 1 mps 754 mmHg 35%
22:00 +22°C° 0 mm 1 mps 754 mmHg 37%
23:00 +21°C° 0 mm 1 mps 754 mmHg 39%

7 December, Monday

Time Temperature Precipitation Wind Pressure Humidity
00:00 +20°C° 0 mm 1 mps 754 mmHg 41%
01:00 +18°C° 0 mm 0 mps 754 mmHg 42%
02:00 +18°C° 0 mm 0 mps 754 mmHg 44%
03:00 +17°C° 0 mm 0 mps 753 mmHg 45%
04:00 +17°C° 0 mm 0 mps 753 mmHg 46%
05:00 +19°C° 0 mm 1 mps 754 mmHg 46%
06:00 +19°C° 0 mm 1 mps 754 mmHg 47%
07:00 +20°C° 0 mm 1 mps 754 mmHg 44%
08:00 +21°C° 0 mm 1 mps 755 mmHg 41%
09:00 +23°C° 0 mm 1 mps 756 mmHg 38%
10:00 +25°C° 0 mm 1 mps 755 mmHg 34%
11:00 +27°C° 0 mm 1 mps 755 mmHg 30%
12:00 +29°C° 0 mm 1 mps 755 mmHg 27%
13:00 +30°C° 0 mm 1 mps 754 mmHg 25%
14:00 +30°C° 0 mm 1 mps 754 mmHg 24%
15:00 +30°C° 0 mm 2 mps 753 mmHg 23%
16:00 +29°C° 0 mm 2 mps 753 mmHg 26%
17:00 +27°C° 0 mm 1 mps 753 mmHg 29%
18:00 +25°C° 0 mm 1 mps 753 mmHg 32%
19:00 +24°C° 0 mm 1 mps 754 mmHg 33%
20:00 +24°C° 0 mm 1 mps 754 mmHg 34%
21:00 +23°C° 0 mm 1 mps 755 mmHg 36%
22:00 +22°C° 0 mm 1 mps 755 mmHg 38%
23:00 +21°C° 0 mm 1 mps 755 mmHg 39%

8 December, Tuesday

Time Temperature Precipitation Wind Pressure Humidity
00:00 +19°C° 0 mm 0 mps 755 mmHg 41%
01:00 +18°C° 0 mm 0 mps 754 mmHg 42%
02:00 +18°C° 0 mm 0 mps 754 mmHg 44%
03:00 +17°C° 0 mm 0 mps 754 mmHg 45%
04:00 +17°C° 0 mm 0 mps 754 mmHg 46%
05:00 +17°C° 0 mm 0 mps 754 mmHg 47%
06:00 +16°C° 0 mm 0 mps 754 mmHg 48%
07:00 +18°C° 0 mm 0 mps 755 mmHg 45%
08:00 +21°C° 0 mm 1 mps 755 mmHg 42%
09:00 +23°C° 0 mm 1 mps 756 mmHg 39%
10:00 +25°C° 0 mm 1 mps 756 mmHg 35%
11:00 +27°C° 0 mm 1 mps 755 mmHg 32%
12:00 +29°C° 0 mm 1 mps 755 mmHg 28%
13:00 +29°C° 0 mm 1 mps 754 mmHg 26%
14:00 +29°C° 0 mm 2 mps 754 mmHg 25%
15:00 +30°C° 0 mm 2 mps 753 mmHg 23%
16:00 +28°C° 0 mm 2 mps 753 mmHg 26%
17:00 +26°C° 0 mm 2 mps 753 mmHg 30%
18:00 +25°C° 0 mm 1 mps 753 mmHg 33%
19:00 +24°C° 0 mm 1 mps 753 mmHg 35%
20:00 +23°C° 0 mm 1 mps 753 mmHg 36%
21:00 +22°C° 0 mm 1 mps 754 mmHg 38%
22:00 +22°C° 0 mm 1 mps 754 mmHg 39%
23:00 +21°C° 0 mm 1 mps 754 mmHg 40%
Show more